www.pogodaiklimat.ru
ПОГОДА в Термезе

Архив погоды в Термезе (Сухрандарьинская область, Узбекистан)

Время
и дата
01:20 23.05
01:30 23.05
01:40 23.05
01:50 23.05
02:00 23.05
02:10 23.05
02:20 23.05
02:30 23.05
02:40 23.05
02:50 23.05
03:00 23.05
03:10 23.05
03:20 23.05
03:30 23.05
03:40 23.05
03:50 23.05
04:00 23.05
04:10 23.05
04:20 23.05
04:30 23.05
04:40 23.05
04:50 23.05
05:00 23.05
05:10 23.05
05:20 23.05
05:30 23.05
05:40 23.05
05:50 23.05
06:00 23.05
06:10 23.05
06:20 23.05
06:30 23.05
06:40 23.05
06:50 23.05
07:00 23.05
07:10 23.05
07:20 23.05
07:30 23.05
07:40 23.05
07:50 23.05
08:00 23.05
08:10 23.05
08:20 23.05
08:30 23.05
08:40 23.05
08:50 23.05
09:00 23.05
09:10 23.05
09:20 23.05
09:30 23.05
09:40 23.05
09:50 23.05
10:00 23.05
10:10 23.05
10:20 23.05
10:30 23.05
10:40 23.05
10:50 23.05
11:00 23.05
11:10 23.05
11:20 23.05
11:30 23.05
11:40 23.05
11:50 23.05
12:00 23.05
12:10 23.05
12:20 23.05
12:30 23.05
12:40 23.05
12:50 23.05
13:00 23.05
13:10 23.05
13:20 23.05
13:40 23.05
13:50 23.05
14:00 23.05
14:10 23.05
14:20 23.05
14:30 23.05
14:40 23.05
14:50 23.05
15:00 23.05
15:10 23.05
15:20 23.05
15:30 23.05
15:40 23.05
15:50 23.05
16:00 23.05
16:10 23.05
16:20 23.05
16:30 23.05
16:40 23.05
16:50 23.05
17:00 23.05
17:10 23.05
17:30 23.05
17:40 23.05
17:50 23.05
18:00 23.05
18:10 23.05
18:20 23.05
18:30 23.05
18:40 23.05
18:50 23.05
19:00 23.05
19:10 23.05
19:20 23.05
19:30 23.05
19:40 23.05
19:50 23.05
20:00 23.05
20:10 23.05
20:20 23.05
20:30 23.05
20:40 23.05
20:50 23.05
21:00 23.05
21:10 23.05
21:20 23.05
21:30 23.05
21:40 23.05
21:50 23.05
22:00 23.05
22:10 23.05
22:20 23.05
22:30 23.05
22:40 23.05
22:50 23.05
23:00 23.05
23:10 23.05
23:20 23.05
23:40 23.05
23:50 23.05
00:00 24.05
00:10 24.05
00:20 24.05
00:30 24.05
00:40 24.05
00:50 24.05
01:00 24.05
01:10 24.05
01:20 24.05
01:30 24.05
01:40 24.05
Ветер
(напр.,м/с)
Видимость Явления Солнечная радиация
(Вт/м2)
Т
(С)
Тd
(С)
f
(%)
Тe
(С)
Тes
(С)
Комфортность P
(гПа)
Po
(гПа)
Тmin
(С)
Tmax
(С)
R
(мм)
ЮЗ 1.1
{2.6}
+23.9 +11.8 47 +26 +26 жарко 1011.0 974.1 +23.9 +23.7
Ю 0.9
{2.5}
+23.7 +12.4 49 +26 +26 жарко 1010.8 973.9 +23.9 +23.7
Ю 0.7
{1.7}
+23.3 +13.2 53 +26 +26 жарко 1010.7 973.8 +23.7 +23.3
ЮВ 0.7
{1.6}
+22.8 +14.8 60 +26 +26 жарко 1010.6 973.7 +23.3 +22.8
ЮВ 1.0
{1.9}
+22.7 +13.8 57 +26 +26 жарко 1010.5 973.6 +22.8 +22.7
ЮВ 0.7
{2.3}
+22.3 +12.9 55 +25 +25 комфорт 1010.3 973.4 +22.7 +22.2
ЮВ 0.8
{2.1}
+22.3 +14.5 61 +26 +26 жарко 1010.3 973.4 +22.5 +22.3
Ю 0.8
{1.8}
+21.7 +13.8 61 +25 +25 комфорт 1010.1 973.2 +22.3 +21.7
ЮЗ 0.3
{1.5}
+21.3 +14.7 66 +24 +24 комфорт 1010.1 973.2 +21.7 +21.3
ЮЗ 0.5
{1.5}
+20.8 +16.5 76 +26 +26 душно 1009.9 973.0 +21.3 +20.9
ЮВ 0.6
{2.1}
+20.7 +14.2 66 +25 +25 комфорт 1010.0 973.1 +20.8 +20.7
ЮВ 1.3
{2.4}
+20.9 +13.3 62 +24 +24 комфорт 1010.1 973.2 +20.9 +20.7
В 1.2
{1.9}
+20.8 +15.3 71 +25 +25 комфорт 1010.1 973.2 +21.1 +20.8
СВ 1.4
{2.7}
+20.5 +15.3 72 +24 +24 комфорт 1010.2 973.3 +20.8 +20.5
В 1.5
{2.5}
+20.5 +15.3 72 +24 +24 комфорт 1010.2 973.3 +20.6 +20.5
С 1.3
{2.1}
+20.7 +14.6 68 +24 +24 комфорт 1010.3 973.4 +20.7 +20.5
СЗ 1.0
{2.0}
+20.4 +15.5 73 +24 +24 комфорт 1010.4 973.5 +20.8 +20.4
В 0.8
{2.1}
+20.1 +15.9 77 +24 +24 комфорт 1010.4 973.5 +20.4 +20.1
С 1.1
{1.8}
+19.9 +16.2 79 +23 +23 комфорт 1010.4 973.5 +20.1 +19.9
СЗ 1.4
{2.0}
+20.2 +15.7 75 +24 +24 комфорт 1010.3 973.4 +20.3 +19.8
СЗ 0.6
{1.4}
+19.9 +15.7 77 +24 +24 комфорт 1010.4 973.5 +20.2 +19.9
З 0.9
{1.4}
+19.9 +15.8 77 +23 +23 комфорт 1010.3 973.4 +20.0 +19.9
З 0.5
{1.1}
+19.6 +16.3 81 +23 +23 комфорт 1010.4 973.5 +19.9 +19.6
ЮВ 1.1
{1.9}
+18.9 +18.4 97 +21 +21 комфорт 1010.7 973.8 +19.6 +18.9
В 1.3
{2.5}
+18.7 +18.1 96 +21 +21 комфорт 1010.9 974.0 +18.9 +18.6
В 1.3
{2.5}
+18.7 +17.9 95 +21 +21 комфорт 1011.0 974.1 +18.8 +18.7
ЮВ 1.3
{2.1}
+18.9 +17.9 94 +21 +21 комфорт 1011.0 974.1 +18.9 +18.7
Ю 1.1
{1.8}
+18.9 +18.2 96 +21 +21 комфорт 1011.0 974.1 +19.0 +18.9
Ю 1.2
{2.0}
+19.1 +17.8 92 +22 +22 комфорт 1010.9 974.0 +19.1 +18.9
Ю 0.9
{1.7}
+19.5 +17.7 89 +23 +23 комфорт 1010.9 974.0 +19.5 +19.1
Ю 0.8
{1.5}
+19.9 +18.4 91 +24 +24 комфорт 1010.9 974.0 +19.9 +19.5
Ю 0.8
{1.6}
+20.5 +18.5 88 +26 +26 душно 1010.9 974.0 +20.5 +19.9
ЮВ 1.1
{1.6}
+20.8 +19.3 91 +26 +26 душно 1011.0 974.1 +20.8 +20.5
Ю 0.9
{1.7}
+21.8 +17.8 78 +26 +26 душно 1011.0 974.1 +21.8 +20.8
Ю 1.0
{2.5}
+22.9 +17.2 70 +28 +28 душно 1011.0 974.1 +22.9 +21.8
Ю 1.2
{2.5}
+23.7 +14.5 57 +26 +26 жарко 1011.0 974.1 +23.7 +22.9
ЮЗ 1.4
{3.7}
+23.9 +15.5 59 +27 +27 жарко 1011.3 974.3 +23.9 +23.7
ЮЗ 1.2
{2.9}
+24.2 +14.2 54 +27 +27 жарко 1011.4 974.4 +24.3 +23.9
ЮЗ 0.9
{2.4}
+24.7 +14.3 52 +27 +27 жарко 1011.4 974.4 +24.7 +24.2
ЮЗ 1.4
{2.8}
+24.6 +14.0 52 +27 +27 жарко 1011.4 974.4 +24.9 +24.6
ЮЗ 1.7
{2.9}
+24.8 +14.9 54 +28 +28 жарко 1011.5 974.5 +24.7 +24.5
ЮЗ 1.8
{3.6}
+24.9 +14.5 52 +27 +27 жарко 1011.5 974.5 +25.0 +24.8
З 1.6
{3.3}
+25.3 +14.5 51 +28 +28 жарко 1011.5 974.5 +25.4 +24.9
З 2.0
{3.6}
+25.6 +14.3 50 +28 +28 жарко 1011.5 974.5 +25.6 +25.3
З 2.7
{4.9}
+25.6 +15.1 52 +28 +28 жарко 1011.5 974.5 +25.8 +25.5
З 2.5
{4.7}
+25.9 +14.6 50 +28 +28 жарко 1011.4 974.4 +25.9 +25.6
З 3.0
{5.3}
+26.0 +14.8 50 +29 +29 душно 1011.4 974.4 +26.0 +25.9
З 2.6
{4.9}
+26.7 +15.2 49 +29 +29 жарко 1011.3 974.3 +26.7 +26.0
З 2.6
{4.8}
+27.2 +14.8 47 +30 +30 душно 1011.3 974.3 +27.2 +26.7
ЮЗ 2.7
{4.9}
+27.6 +14.3 44 +30 +30 жарко 1011.3 974.3 +27.6 +27.2
З 2.1
{3.8}
+28.3 +14.3 42 +30 +30 жарко 1011.2 974.3 +28.3 +27.6
З 2.0
{4.7}
+28.8 +13.6 40 +31 +31 жарко 1011.2 974.3 +28.9 +28.3
З 1.9
{4.2}
+29.1 +14.1 40 +31 +31 жарко 1011.1 974.2 +29.1 +28.7
ЮЗ 1.7
{3.8}
+29.7 +13.7 38 +31 +31 жарко 1011.0 974.1 +29.6 +28.9
З 1.8
{3.5}
+29.6 +15.0 41 +32 +32 душно 1011.0 974.1 +29.7 +29.5
ЮЗ 1.1
{2.4}
+30.5 +14.4 38 +33 +33 душно 1011.0 974.1 +30.6 +29.6
З 1.6
{3.6}
+30.8 +13.7 35 +32 +32 жарко 1010.9 974.0 +30.8 +30.5
З 1.4
{3.8}
+30.9 +14.2 36 +33 +33 душно 1010.9 974.0 +31.1 +30.8
З 1.6
{3.2}
+31.2 +14.2 35 +33 +33 жарко 1010.8 973.9 +31.4 +30.9
СЗ 1.6
{3.4}
+31.2 +15.0 37 +33 +33 жарко 1010.7 973.8 +31.3 +31.1
С 1.1
{2.4}
+31.7 +13.7 33 +33 +33 жарко 1010.7 973.8 +31.8 +31.2
СЗ 0.7
{2.3}
+32.2 +13.2 31 +33 +33 жарко 1010.6 973.7 +32.3 +31.7
З 1.2
{2.5}
+32.3 +13.9 33 +34 +34 душно 1010.5 973.6 +32.7 +32.1
С 1.1
{2.2}
+32.9 +13.4 31 +34 +34 очень
жарко
1010.4 973.5 +32.9 +32.3
СЗ 0.9
{2.0}
+33.2 +15.0 33 +35 +35 душно 1010.3 973.4 +33.6 +32.9
С 1.0
{2.3}
+33.4 +14.1 31 +35 +35 душно 1010.1 973.2 +33.3 +32.9
СЗ 1.0
{2.5}
+33.5 +16.0 35 +36 +36 очень
душно
1010.0 973.1 +34.2 +33.4
СВ 1.4
{3.4}
+33.9 +14.4 31 +35 +35 очень
жарко
1009.8 972.9 +34.1 +33.5
ЮВ 2.0
{4.4}
+34.1 +13.8 29 +35 +35 очень
жарко
1009.7 972.8 +34.5 +33.9
ЮВ 1.5
{3.8}
+34.4 +12.5 27 +35 +35 очень
жарко
1009.7 972.8 +34.5 +33.9
СВ 1.1
{2.1}
+34.1 +12.9 28 +35 +35 очень
жарко
1009.6 972.7 +34.5 +33.8
В 1.2
{3.7}
+35.2 +13.8 28 +36 +36 очень
жарко
1009.4 972.5 +35.2 +34.1
В 1.3
{3.3}
+35.2 +15.2 30 +37 +37 очень
душно
1009.3 972.4 +35.3 +34.9
С 1.2
{3.6}
+34.7 +15.7 32 +37 +37 очень
душно
1009.0 972.1 +34.7 +34.1
В 1.2
{3.5}
+35.3 +13.0 26 +36 +36 очень
жарко
1008.8 971.9 +35.3 +34.7
ЮВ 1.3
{3.3}
+35.3 +12.5 25 +35 +35 очень
жарко
1008.7 971.8 +35.6 +35.3
СВ 1.7
{4.7}
+35.2 +12.2 25 +35 +35 очень
жарко
1008.4 971.5 +35.3 +35.0
СВ 1.7
{6.1}
+35.5 +12.7 25 +35 +35 очень
жарко
1008.1 971.3 +35.5 +35.0
В 1.2
{3.1}
+36.2 +15.1 29 +38 +38 очень
душно
1007.9 971.1 +36.4 +35.5
В 1.8
{4.1}
+36.2 +14.2 27 +37 +37 очень
жарко
1007.8 971.0 +36.3 +36.1
СВ 1.9
{4.9}
+35.7 +14.8 29 +37 +37 душно 1007.6 970.8 +36.5 +35.7
В 1.5
{4.0}
+36.2 +14.2 27 +37 +37 очень
жарко
1007.4 970.6 +36.2 +35.7
В 2.2
{4.4}
+35.8 +15.2 29 +37 +37 душно 1007.3 970.5 +36.3 +35.8
СВ 1.4
{4.0}
+36.0 +14.0 27 +37 +37 душно 1007.2 970.4 +36.2 +35.6
СВ 2.3
{5.2}
+36.0 +14.8 28 +37 +37 душно 1007.0 970.2 +36.1 +35.5
В 1.8
{3.9}
+36.6 +13.1 25 +37 +37 очень
жарко
1006.9 970.1 +36.6 +36.0
СЗ 0.9
{2.8}
+36.7 +13.9 26 +37 +37 очень
жарко
1006.8 970.0 +36.7 +36.2
СВ 0.8
{2.0}
+36.8 +15.7 29 +39 +39 очень
душно
1006.7 969.9 +37.2 +36.7
В 1.1
{2.3}
+36.6 +14.2 26 +37 +37 очень
жарко
1006.6 969.8 +37.0 +36.6
СВ 0.7
{2.0}
+37.0 +12.5 23 +37 +37 очень
жарко
1006.5 969.7 +37.1 +36.6
Ю 0.7
{1.4}
+37.0 +12.6 23 +37 +37 очень
жарко
1006.4 969.6 +37.1 +37.0
ЮВ 1.0
{2.2}
+36.7 +13.6 25 +37 +37 очень
жарко
1006.2 969.4 +37.0 +36.7
В 1.0
{2.1}
+36.8 +14.1 26 +38 +38 очень
душно
1006.0 969.2 +37.0 +36.7
В 1.7
{3.7}
+36.5 +14.4 27 +38 +38 очень
душно
1005.9 969.1 +36.8 +36.5
В 1.2
{2.7}
+36.5 +12.9 24 +36 +36 очень
жарко
1005.8 969.0 +36.5 +36.1
ЮВ 1.3
{2.2}
+36.1 +15.6 30 +38 +38 очень
душно
1005.6 968.8 +36.2 +36.0
ЮВ 1.0
{2.4}
+36.0 +16.6 32 +39 +39 очень
душно
1005.6 968.8 +36.3 +36.0
В 0.6
{1.4}
+36.2 +14.9 28 +37 +37 очень
жарко
1005.5 968.7 +36.4 +36.0
ЮЗ 0.3
{1.0}
+36.0 +14.3 27 +37 +37 душно 1005.6 968.8 +36.2 +35.9
Ю 0.5
{1.0}
+35.6 +15.3 30 +37 +37 душно 1005.7 968.9 +36.0 +35.6
ЮВ 0.5
{0.9}
+35.3 +15.0 30 +37 +37 очень
душно
1005.8 969.0 +35.6 +35.2
ЮВ 0.6
{1.1}
+34.0 +19.5 43 +40 +40 очень
душно
1005.8 969.0 +35.3 +34.0
В 0.7
{1.0}
+33.2 +19.7 45 +39 +39 очень
душно
1005.9 969.1 +34.0 +33.3
В 0.6
{1.0}
+32.5 +15.7 36 +35 +35 душно 1005.9 969.1 +33.2 +32.5
З 0.6
{1.5}
+32.3 +15.2 36 +35 +35 очень
душно
1005.9 969.1 +32.5 +32.3
СЗ 0.4
{1.9}
+32.0 +14.6 35 +34 +34 душно 1006.0 969.2 +32.3 +32.0
С 0.9
{1.8}
+31.2 +17.4 44 +35 +35 очень
душно
1005.9 969.1 +32.0 +31.3
С 1.2
{2.0}
+30.7 +16.1 41 +34 +34 очень
душно
1005.9 969.1 +31.2 +30.7
С 1.3
{1.9}
+30.3 +15.4 40 +33 +33 душно 1005.9 969.1 +30.7 +30.3
СЗ 1.4
{2.5}
+30.5 +14.3 37 +32 +32 жарко 1006.1 969.3 +30.5 +30.3
СЗ 1.5
{2.5}
+30.2 +15.1 40 +33 +33 душно 1006.2 969.4 +30.5 +30.2
СЗ 1.2
{2.0}
+30.0 +14.9 40 +32 +32 жарко 1006.4 969.6 +30.2 +30.0
СЗ 1.1
{2.0}
+29.7 +15.1 41 +32 +32 душно 1006.4 969.6 +30.0 +29.8
З 0.7
{1.3}
+29.3 +15.4 43 +32 +32 душно 1006.5 969.7 +29.7 +29.3
Ю 0.3
{0.6}
+28.4 +16.7 49 +32 +32 душно 1006.5 969.7 +29.3 +28.5
В 0.2
{0.4}
+28.0 +17.0 51 +32 +32 душно 1006.6 969.8 +28.4 +28.0
С 0.4
{1.0}
+27.7 +17.3 53 +32 +32 очень
душно
1006.6 969.8 +28.0 +27.7
С 0.8
{1.4}
+27.5 +19.2 60 +33 +33 очень
душно
1006.7 969.9 +27.7 +27.5
С 1.0
{1.5}
+27.2 +16.7 53 +31 +31 душно 1006.8 970.0 +27.5 +27.2
С 0.9
{2.0}
+27.3 +16.5 52 +31 +31 душно 1006.8 970.0 +27.3 +27.2
С 1.1
{2.1}
+27.4 +16.2 51 +31 +31 душно 1006.8 970.0 +27.4 +27.3
СВ 1.2
{2.1}
+27.3 +16.4 51 +31 +31 душно 1006.8 970.0 +27.4 +27.3
СВ 1.2
{2.5}
+27.3 +16.0 50 +31 +31 душно 1006.7 969.9 +27.3 +27.2
СВ 0.8
{1.8}
+27.4 +16.8 52 +31 +31 душно 1006.8 970.0 +27.5 +27.3
СВ 0.8
{1.7}
+27.3 +18.0 57 +32 +32 очень
душно
1006.8 970.0 +27.4 +27.3
С 1.0
{2.1}
+27.2 +17.0 53 +31 +31 душно 1006.6 969.8 +27.3 +27.2
ЮВ 0.7
{1.6}
+26.8 +18.7 61 +32 +32 очень
душно
1006.5 969.7 +27.2 +26.8
З 0.9
{1.6}
+26.6 +18.2 60 +31 +31 душно 1006.4 969.6 +26.8 +26.6
С 1.2
{2.2}
+26.2 +18.9 64 +31 +31 очень
душно
1006.3 969.5 +26.6 +26.2
СВ 1.5
{2.6}
+26.2 +18.1 61 +31 +31 очень
душно
1006.2 969.4 +26.2 +26.1
СВ 1.4
{3.0}
+26.5 +17.0 56 +30 +30 душно 1006.1 969.3 +26.5 +26.2
З 1.3
{2.5}
+26.6 +17.7 58 +31 +31 душно 1006.0 969.2 +26.9 +26.6
СЗ 1.5
{2.7}
+26.9 +16.7 54 +31 +31 душно 1005.9 969.1 +26.9 +26.4
С 1.5
{2.9}
+27.4 +16.6 52 +31 +31 душно 1005.7 968.9 +27.4 +26.9
С 1.3
{2.9}
+27.6 +16.7 52 +31 +31 душно 1005.6 968.8 +27.6 +27.4
СЗ 1.2
{2.9}
+26.9 +17.7 57 +31 +31 душно 1005.6 968.8 +27.6 +26.9
З 1.4
{2.8}
+26.3 +18.2 61 +31 +31 душно 1005.7 968.9 +26.9 +26.3
З 2.2
{3.5}
+26.2 +17.7 59 +30 +30 душно 1005.8 969.0 +26.3 +26.2
З 2.1
{3.6}
+26.0 +18.1 62 +31 +31 очень
душно
1006.0 969.2 +26.3 +26.0
ЮВ 1.0
{2.2}
+25.6 +18.8 66 +31 +31 очень
душно
1006.0 969.2 +26.0 +25.6
С 0.7
{1.3}
+25.3 +18.9 67 +30 +30 душно 1005.9 969.1 +25.6 +25.3
С 0.5
{1.1}
+25.3 +19.2 69 +30 +30 душно 1005.9 969.1 +25.4 +25.3
З 1.3
{2.1}
+25.2 +20.0 73 +31 +31 очень
душно
1005.9 969.1 +25.3 +25.2
З 1.4
{2.2}
+25.0 +20.2 75 +31 +31 очень
душно
1005.9 969.1 +25.2 +25.0
Местоположение метеостанции Термез (Сухрандарьинская область, Узбекистан): широта 37.28 долгота 67.32 высота над уровнем моря 0 м.
В архиве по умолчанию представлена погода в Термезе за последние 1-2 суток. Обновление информации о фактической погоде в базе происходит ежечасно! Архивные данные за месяц целиком и за предыдущие месяцы Вы можете получить, выбрав интересующий диапазон дат из раскрывающегося списка и нажав кнопку "Ввод!".
*Определитесь, кто Вы:
Внимание! Время в таблицах - местное (без учета летнего времени). Для получения всемирного времени необходимо вычесть поправку, которая равна 5 ч.
Смотрите также архив погоды на ближайших метеорологических станциях:
Партнеры нашего сайта:      
Пояснения к столбцам:
  • Ветер - указаны скорость ветра в м/с - средняя за 10 мин, порывы в срок и между сроками (в фигурных скобках) и направление, откуда дует ветер: С - северный,
  • СВ - северо-восточный, В - восточный, ЮВ - юго-восточный, Ю - южный, ЮЗ - юго-западный, З - западный, СЗ - северо-западный.
  • Видимость - горизонтальная дальность видимости в метрах или километрах. При видимости от 1 до 10 км при отсутствии осадков обычно наблюдается дымка, при ухудшении видимости до 1 км и менее - туман. В сухую погоду видимость может ухудшаться дымом, пылью или мглою.
  • Явления - указаны атмосферные явления, наблюдавшиеся в срок или в последний час перед сроком.
  • Солнечная радиация - мощность потока солнечного излучения на поверхность земли и предметов в Вт/м2.
  • T - Температура воздуха - температура, измеренная на высоте 2 м над землей.
  • Td - Температура точки росы - температура, при понижении до которой содержащийся в воздухе водяной пар достигнет насыщения.
  • f - Относительная влажность воздуха - влажноcть воздуха, измеренная на высоте 2 м над землей.
  • Te - Эффективная температура - температура, которую ощущает одетый по сезону человек в тени. Характеристика душности погоды. При расчете учитывается влияние влажности воздуха и скорости ветра на теплоощущения человека.
  • Tes - Эффективная температура на солнце - температура, которую ощущает человек, с поправкой на солнечный нагрев. Характеристика знойности погоды. Зависит от высоты солнца над горизонтом, облачности и скорости ветра. Ночью, в пасмурную погоду, а также при ветре 12 м/с и более поправка равна нулю.
  • P - Атмосферное давление - приведенное к уровню моря атмосферное давление.
  • Po - Атмосферное давление - измеренное на уровне метеостанции атмосферное давление.
  • Tmin - Минимальная температура - минимум температуры воздуха на высоте 2 м над землей.
  • Tmax - Максимальная температура - максимум температуры воздуха на высоте 2 м над землей.
  • R - Количество осадков - Количество выпавших осадков за период времени, мм. При наведении курсора мыши на число - период времени, за который выпало указанное количество осадков.